Regional Weather Roundup
Issued by NWS

Home | Current Version | Previous Version | Graphics & Text | Print | Product List | Glossary On
Versions: 1 2 3 4 5 6 7 8 9 10 11 12 13 14 15 16 17 18 19 20 21 22 23 24 25 26 27 28 29 30 31 32 33 34 35 36 37 38 39 40 41 42 43 44 45 46 47 48 49 50
000
ASUS45 KBOI 270310
RWRID
WEATHER ROUNDUP FOR IDAHO
NATIONAL WEATHER SERVICE BOISE ID
800 PM MST MON JAN 26 2015

NOTE: "FAIR" INDICATES FEW OR NO CLOUDS BELOW 12000 FEET
WITH NO SIGNIFICANT WEATHER AND/OR OBSTRUCTIONS TO VISIBILITY

IDZ012-014-270400-
SOUTHWEST IDAHO


CITY           SKY/WX    TMP DP  RH WIND       PRES   REMARKS
BOISE          PTCLDY    36  32  85 CALM      30.16S
CALDWELL       PTCLDY    36  27  69 W7        30.19S WCI  30
MOUNTAIN HOME  CLEAR     38  33  83 VRB2      30.14F
$$

IDZ016-017-270400-
SOUTHCENTRAL IDAHO


CITY           SKY/WX    TMP DP  RH WIND       PRES   REMARKS
BURLEY         CLEAR     39  33  79 E13       30.15S WCI  31
JEROME         CLEAR     38  32  79 NE24      30.14F WCI  27
TWIN FALLS     CLEAR     40  34  79 E8        30.14F WCI  34
$$

IDZ019>023-270400-
SOUTHEAST IDAHO


CITY           SKY/WX    TMP DP  RH WIND       PRES   REMARKS
IDAHO FALLS    PTCLDY    32  29  88 N7        30.21F WCI  26
POCATELLO      CLEAR     33  32  96 CALM      30.21S
REXBURG        MOCLDY    30  28  92 CALM      30.22S
$$

IDZ006-010-011-018-031-032-270400-
CENTRAL IDAHO MOUNTAINS


CITY           SKY/WX    TMP DP  RH WIND       PRES   REMARKS
MCCALL         CLEAR     32  27  81 CALM      30.13F
HAILEY         PTCLDY    39  30  70 NW6       30.21R WCI  35
STANLEY          N/A     24  19  81 CALM      30.22S
SALMON         CLOUDY   N/A N/A N/A CALM      30.23S VSB 1/4
CHALLIS        CLEAR     30  27  88 CALM      30.20S
$$

IDZ002-004-006-007-026-270400-
NORTHERN IDAHO


CITY           SKY/WX    TMP DP  RH WIND       PRES   REMARKS
LEWISTON       CLEAR     56  38  50 SE13      30.00S
LOWELL           N/A     35  34  96 N5        30.13R WCI  31
COEUR D`ALENE  CLEAR     36  32  87 NE9       30.00F WCI  29
MULLAN PASS    CLEAR     45  26  47 W9        30.08S
$$


USA.gov is the U.S. government's official web portal to all federal, state and local government web resources and services.